CAL2171 RJNT-RCTP

Flight info

Callsign CAL2171
Flight time N/A
Altitude 34000
Route URUSI Y45 HKC A1 DRAKE DRAKE1A
Aircraft A21N/M-SDE3FGHIRWY/LB1

Departure

Time 2026-04-19 08:52
Airport Toyama Kitokito Airport (RJNT)

Arrival

Time N/A
Airport Taiwan Taoyuan International Airport (RCTP)
Time Latitude Longitude Altitude Speed Heading
2026-04-19 08:42 36.64479 137.18857 79 ft 0 kts 156°
2026-04-19 08:44 36.64492 137.18849 79 ft 2 kts 156°
2026-04-19 08:45 36.64507 137.18842 78 ft 2 kts 157°
2026-04-19 08:45 36.64520 137.18834 78 ft 2 kts 157°
2026-04-19 08:45 36.64534 137.18828 77 ft 2 kts 156°
2026-04-19 08:45 36.64548 137.18820 77 ft 2 kts 157°
2026-04-19 08:46 36.64561 137.18813 76 ft 2 kts 156°
2026-04-19 08:46 36.64575 137.18806 76 ft 2 kts 180°
2026-04-19 08:46 36.64583 137.18808 76 ft 0 kts 199°
2026-04-19 08:46 36.64588 137.18810 76 ft 0 kts 193°
2026-04-19 08:48 36.64579 137.18806 76 ft 3 kts 191°
2026-04-19 08:48 36.64541 137.18797 77 ft 7 kts 192°
2026-04-19 08:49 36.64476 137.18777 79 ft 10 kts 194°
2026-04-19 08:49 36.64413 137.18723 81 ft 13 kts 253°
2026-04-19 08:49 36.64372 137.18604 79 ft 17 kts 200°
2026-04-19 08:49 36.64241 137.18562 81 ft 20 kts 193°
2026-04-19 08:50 36.64111 137.18523 83 ft 12 kts 200°
2026-04-19 08:50 36.64045 137.18462 83 ft 11 kts 214°
2026-04-19 08:50 36.63984 137.18454 84 ft 7 kts 132°
2026-04-19 08:50 36.64001 137.18489 84 ft 5 kts 22°
2026-04-19 08:51 36.64013 137.18492 84 ft 0 kts 14°
2026-04-19 08:52 36.64085 137.18514 83 ft 41 kts 13°
2026-04-19 08:52 36.64607 137.18669 74 ft 113 kts 14°
2026-04-19 08:52 36.65753 137.19014 227 ft 162 kts 13°
2026-04-19 08:52 36.66758 137.19289 717 ft 166 kts 13°